VTK225 URSS-UWWW

Flight info

Callsign VTK225
Flight time 1h 48m
Altitude 35000
Route IRGID1X IRGID A944 GUBOR G487 ERSAR DCT BEMES DCT VULFI DCT TUVGI DCT EVZUN DCT ZIZAR DCT VAZLU DCT UZZID DCT NOKLI N72 WGD G901 RODUN R807 UROBO P135 TUNIG TUNIG2A
Aircraft A320/M-SDE3FGHIRWY/LB1

Departure

Time 2025-10-06 11:47
Airport Sochi International Airport (URSS)

Arrival

Time 2025-10-06 13:35
Airport Kurumoch International Airport (UWWW)
Time Latitude Longitude Altitude Speed Heading
2025-10-06 11:46 43.43013 39.88002 2190 ft 182 kts 259°
2025-10-06 11:47 43.42403 39.84200 2819 ft 229 kts 259°
2025-10-06 11:47 43.41637 39.79515 3925 ft 266 kts 257°
2025-10-06 11:48 43.40783 39.74466 5736 ft 274 kts 256°
2025-10-06 11:48 43.40049 39.70169 7208 ft 279 kts 254°
2025-10-06 11:49 43.39861 39.64024 9354 ft 289 kts 290°
2025-10-06 11:49 43.42195 39.60602 10501 ft 316 kts 331°
2025-10-06 11:50 43.46585 39.58151 11096 ft 359 kts 336°
2025-10-06 11:50 43.51309 39.55664 12452 ft 370 kts 336°
2025-10-06 11:51 43.56156 39.53059 13893 ft 377 kts 335°
2025-10-06 11:51 43.61176 39.50651 15148 ft 389 kts 346°
2025-10-06 11:52 43.66658 39.50760 16371 ft 404 kts 11°
2025-10-06 11:52 43.72032 39.53174 17573 ft 412 kts 17°
2025-10-06 11:53 43.77520 39.55770 18675 ft 420 kts 17°
2025-10-06 11:53 43.83102 39.58403 19695 ft 426 kts 16°
2025-10-06 11:54 43.88770 39.61074 20706 ft 433 kts 16°
2025-10-06 11:54 43.94488 39.63769 21703 ft 439 kts 15°
2025-10-06 11:55 43.97395 39.65142 22186 ft 442 kts 15°
2025-10-06 11:55 44.06225 39.69325 23548 ft 451 kts 15°
2025-10-06 11:56 44.12204 39.72173 24317 ft 457 kts 14°
2025-10-06 11:56 44.18239 39.75051 25106 ft 461 kts 14°
2025-10-06 11:58 44.40024 39.83266 27531 ft 460 kts 351°
2025-10-06 12:00 44.68651 39.77818 30537 ft 464 kts 343°
2025-10-06 12:02 44.90901 39.73460 32997 ft 458 kts 342°
2025-10-06 12:04 45.19310 39.68186 35059 ft 469 kts 352°
2025-10-06 12:06 45.41768 39.80284 35064 ft 502 kts 16°
2025-10-06 12:08 45.70298 39.99071 35085 ft 501 kts 16°
2025-10-06 12:10 45.92341 40.14128 35098 ft 504 kts 19°
2025-10-06 12:12 46.20249 40.35312 35107 ft 503 kts 19°
2025-10-06 12:14 46.41866 40.51995 35115 ft 506 kts 21°
2025-10-06 12:16 46.69986 40.71008 35100 ft 487 kts
2025-10-06 12:18 46.92666 40.81218 35106 ft 488 kts
2025-10-06 12:20 47.21947 40.94523 35135 ft 490 kts
2025-10-06 12:22 47.44726 41.04969 35129 ft 490 kts
2025-10-06 12:24 47.72901 41.24065 35156 ft 504 kts 24°
2025-10-06 12:26 47.93878 41.42950 35149 ft 502 kts 25°
2025-10-06 12:28 48.20623 41.67478 35135 ft 500 kts 25°
2025-10-06 12:30 48.40797 41.87998 35143 ft 504 kts 34°
2025-10-06 12:32 48.64425 42.16718 35159 ft 502 kts 35°
2025-10-06 12:34 48.86024 42.43310 35149 ft 500 kts 35°
2025-10-06 12:36 49.07571 42.70117 35139 ft 499 kts 35°
2025-10-06 12:38 49.29028 42.97145 35160 ft 500 kts 36°
2025-10-06 12:40 49.50389 43.24344 35137 ft 498 kts 36°
2025-10-06 12:42 49.71647 43.51748 35136 ft 497 kts 36°
2025-10-06 12:44 49.92813 43.79337 35137 ft 497 kts 36°
2025-10-06 12:46 50.13883 44.07155 35135 ft 497 kts 36°
2025-10-06 12:48 50.34877 44.35164 35150 ft 497 kts 37°
2025-10-06 12:50 50.55781 44.63444 35133 ft 496 kts 37°
2025-10-06 12:52 50.76601 44.91939 35140 ft 495 kts 37°
2025-10-06 12:54 50.97308 45.20625 35129 ft 494 kts 37°
2025-10-06 12:56 51.17864 45.49525 35135 ft 493 kts 37°
2025-10-06 12:58 51.38333 45.78710 35146 ft 493 kts 37°
2025-10-06 13:00 51.58723 46.08105 35165 ft 492 kts 36°
2025-10-06 13:02 51.79405 46.36787 35169 ft 490 kts 36°
2025-10-06 13:04 51.96733 46.71517 35160 ft 497 kts 48°
2025-10-06 13:06 52.13574 47.07050 35175 ft 495 kts 49°
2025-10-06 13:08 52.30222 47.42722 35179 ft 492 kts 49°
2025-10-06 13:10 52.46722 47.78531 34576 ft 495 kts 50°
2025-10-06 13:12 52.63484 48.15502 27346 ft 490 kts 50°
2025-10-06 13:13 52.71475 48.33324 24147 ft 478 kts 51°
2025-10-06 13:14 52.74738 48.40610 22924 ft 470 kts 51°
2025-10-06 13:14 52.78592 48.49233 21546 ft 461 kts 51°
2025-10-06 13:15 52.80487 48.53484 20890 ft 456 kts 51°
2025-10-06 13:15 52.86031 48.66014 19036 ft 443 kts 51°
2025-10-06 13:16 52.89607 48.74129 17800 ft 434 kts 52°
2025-10-06 13:16 52.93131 48.82137 16595 ft 425 kts 53°
2025-10-06 13:17 52.96564 48.89972 15455 ft 415 kts 54°
2025-10-06 13:17 52.99897 48.97619 14754 ft 396 kts 54°
2025-10-06 13:18 53.03011 49.04772 14510 ft 368 kts 55°
2025-10-06 13:18 53.04468 49.08121 14392 ft 355 kts 55°
2025-10-06 13:19 53.07281 49.14594 14147 ft 334 kts 56°
2025-10-06 13:19 53.12332 49.22125 12992 ft 324 kts 37°
2025-10-06 13:20 53.15957 49.26521 11963 ft 319 kts 37°
2025-10-06 13:20 53.19521 49.30857 10946 ft 314 kts 37°
2025-10-06 13:21 53.23032 49.35136 9948 ft 309 kts 36°
2025-10-06 13:21 53.26488 49.39356 9033 ft 304 kts 37°
2025-10-06 13:22 53.28160 49.41404 8917 ft 301 kts 37°
2025-10-06 13:22 53.31540 49.45548 8649 ft 300 kts 37°
2025-10-06 13:23 53.34908 49.49689 8401 ft 300 kts 37°
2025-10-06 13:23 53.39941 49.55884 8019 ft 298 kts 37°
2025-10-06 13:24 53.43277 49.60002 7766 ft 297 kts 37°
2025-10-06 13:24 53.46585 49.64089 7510 ft 296 kts 38°
2025-10-06 13:25 53.49896 49.68189 7264 ft 295 kts 38°
2025-10-06 13:25 53.53193 49.72289 6877 ft 294 kts 38°
2025-10-06 13:26 53.56464 49.76353 6261 ft 290 kts 38°
2025-10-06 13:26 53.58082 49.78369 6053 ft 289 kts 38°
2025-10-06 13:27 53.61291 49.82374 5599 ft 274 kts 38°
2025-10-06 13:27 53.65490 49.87610 5199 ft 239 kts 39°
2025-10-06 13:28 53.67456 49.91883 4927 ft 227 kts 76°
2025-10-06 13:28 53.67689 49.97075 4332 ft 219 kts 95°
2025-10-06 13:29 53.67677 50.02033 3850 ft 207 kts 96°
2025-10-06 13:29 53.67299 50.06546 3356 ft 181 kts 128°
2025-10-06 13:30 53.66464 50.07969 3174 ft 164 kts 153°
2025-10-06 13:30 53.64437 50.09289 2820 ft 152 kts 163°
2025-10-06 13:31 53.62490 50.10462 2461 ft 147 kts 162°
2025-10-06 13:31 53.59705 50.12138 1956 ft 132 kts 161°
2025-10-06 13:32 53.58010 50.13156 1631 ft 129 kts 161°
2025-10-06 13:32 53.56327 50.14167 1304 ft 128 kts 160°
2025-10-06 13:33 53.54641 50.15176 964 ft 132 kts 160°
2025-10-06 13:33 53.52926 50.16203 680 ft 130 kts 159°
2025-10-06 13:34 53.51246 50.17214 448 ft 114 kts 161°
2025-10-06 13:34 53.50777 50.17491 437 ft 34 kts 160°
2025-10-06 13:35 53.50508 50.17610 440 ft 8 kts 232°
2025-10-06 13:35 53.50462 50.17394 447 ft 10 kts 251°
2025-10-06 13:36 53.50497 50.17233 447 ft 11 kts 340°
2025-10-06 13:36 53.50665 50.17131 447 ft 13 kts 340°
2025-10-06 13:37 53.50814 50.17044 447 ft 10 kts 341°
2025-10-06 13:37 53.50917 50.16831 446 ft 13 kts 302°
2025-10-06 13:38 53.50965 50.16701 447 ft 15 kts 301°
2025-10-06 13:38 53.51080 50.16385 447 ft 15 kts 301°
2025-10-06 13:39 53.51155 50.16159 447 ft 7 kts 269°
2025-10-06 13:39 53.51123 50.15981 447 ft 6 kts 319°
2025-10-06 13:40 53.51174 50.15934 447 ft 0 kts 332°